Vorticity
nan nan nan nan nan nan nan nan nan nan nan nan nan nan nan nan nan nan nan nan nan nan
nan 9 9 10 10 9 9 9 11 10 9 8 9 9 8 8 9 8 9 10 9 nan
nan 10 9 10 10 12 12 13 12 8 8 9 9 9 8 7 8 9 8 9 8 nan
nan 10 10 9 11 10 10 14 12 10 10 10 9 9 9 8 7 8 9 8 8 nan
nan 10 9 9 11 11 11 10 9 9 10 9 10 11 9 8 9 9 9 9 8 nan
nan 11 10 10 9 9 10 11 12 12 10 9 9 9 10 11 9 9 10 10 9 nan
nan 9 9 9 8 8 9 9 10 12 13 13 11 12 12 10 9 10 9 9 10 nan
nan 8 8 8 8 8 8 8 8 8 10 12 14 15 14 14 12 11 10 10 10 nan
nan 8 8 8 8 9 9 9 9 9 9 9 8 6 11 12 12 11 12 11 10 nan
nan 9 8 9 9 10 11 11 11 10 10 11 10 10 12 12 12 9 9 9 9 nan
nan 9 9 10 9 10 11 10 10 10 10 11 10 8 7 14 15 13 11 10 10 nan
nan 7 8 8 9 9 9 8 9 8 8 8 6 3 9 14 13 11 13 13 12 nan
nan 9 9 10 11 10 8 9 9 8 9 9 8 9 14 16 13 12 12 11 11 nan
nan nan nan nan nan nan nan nan nan nan nan nan nan nan nan nan nan nan nan nan nan nan
CAPE
2105 1852 2205 1725 1724 1582 1276 1024 1027 1268 1270 1192 1121 1152 1250 1414 796 1419 1509 1600 1471 544
2473 2044 2170 1865 1615 1549 1471 1041 1281 1204 1152 1271 1211 1412 1394 1385 938 1282 1361 1472 1449 1296
2394 2189 2264 1881 1942 1614 1546 1567 1492 1661 1521 1238 1445 1298 1017 1006 1376 1412 1367 1138 1100 1261
2566 2681 2445 2438 2189 1965 1724 1752 1457 1257 1407 1553 1321 1244 1383 1185 854 1219 1287 1328 1048 1223
2006 2099 1975 2015 2084 1899 1759 1769 1519 1363 1306 1328 1417 1243 1437 1388 1154 794 916 1284 1395 1276
800 64 0 21 35 49 596 1349 1320 1155 1129 1140 1216 1293 1227 1198 1214 1303 1181 1228 950 802
234 245 449 408 285 381 422 315 74 280 875 1056 1056 1089 1274 1229 1089 1130 1157 1052 1072 1071
400 343 212 190 147 86 104 95 130 267 258 293 385 436 830 1222 1080 1042 1046 1046 1008 950
155 41 4 0 0 0 0 0 0 0 3 45 264 2 0 0 0 59 533 819 780 828
14 9 0 0 0 0 0 0 0 3 3 0 0 12 0 0 0 0 0 1 0 0
0 0 0 0 0 0 0 0 0 0 0 0 3 0 0 0 0 0 0 0 9 37
0 0 0 0 0 0 0 0 0 0 0 0 0 0 0 0 0 0 0 0 0 8
0 0 0 0 0 0 0 0 0 0 0 0 0 0 0 0 0 0 0 0 0 0
0 0 0 0 0 4 1 0 0 2 11 17 4 12 0 0 0 0 0 2 4 7